GR-0002 weather

Dhokimion Airport
Agrinion, Aetolia-Acarnania, Greece

Public forecast

Using degrees Celsius for public forecast. Weather courtesy of forecast.io.

METAR (pilot weather report)

Closest report is Araxos Airport, 27.7 nm (51.4 km) S. Retrieved 2018/12/16 08:20 UTC (0 seconds ago):

LGRX 160820Z 00000KT 9999 FEW020 SCT080 15/11 Q1012

TAF (pilot weather forecast)

Forecast is more than 12 hours old.

Closest forecast is Araxos Airport, 27.7 nm (51.4 km) S. Retrieved 2016/08/23 21:24 UTC (2 years ago):

TAF LGRX 232000Z 2321/2409 27010KT 9999 FEW025 SCT080 PROB30 TEMPO 2321/2409 5000 RA SCT030 BKN080 PROB30 TEMPO 2321/2409 5000 SHRA FEW018CB SCT030 BKN080